マクノート彗星

372P/McNaught (2009)

English version
Home page
Updated on October 24, 2018

---------------------------------------------------------------------

・ プロフィール

符号 372P/2008 O2
発見日 2008年7月28日
発見光度 17.7等
発見者 R. H. McNaught (Siding Spring)

・ 写真集

・ 軌道要素

Epoch 2009 May 9.0 TT = JDT 2454960.5
T 2009 Apr. 21.53056 TT                                 MPCW
q   3.8037672            (2000.0)            P               Q
n   0.10348855     Peri.   27.45406     +0.98963685     +0.10957047
a   4.4930492      Node   325.85999     -0.14196691     +0.84359321
e   0.1534107      Incl.    9.51862     +0.02154777     +0.52568509
P   9.52
From 377 observations 2008 July 28-2018 Sept. 6, mean residual 0".6.

・ 光度変化

        m1 = -2 + 5 logΔ + 30 log r(t + 200)

---------------------------------------------------------------------

軌道要素はM.P.E.C. 2018-S01に掲載されたものです。
光度グラフはComet for Windowsで作成したものです。

---------------------------------------------------------------------

Copyright(C) Seiichi Yoshida (comet@aerith.net). All rights reserved.